User: anonymous   Login
Location: Azul
(36.7830°S, 59.8500°W)
Time: 10:22:34
(UTC-03:00)
Language:

SRMSAT - Orbit

View from above orbital plane
View from above orbital plane
View from above satellite
View from above satellite

Ground track
Ground track

The orbit data is extracted from the following two-line orbital elements,

1 37841U 11058D   21294.63053620  .00000326  00000-0  34008-4 0  9991
2 37841  19.9717 258.4535 0011718 239.3759 277.2868 14.10707972517479
Epoch (UTC): 21 October 2021 15:07:58
Eccentricity: 0.0011718
inclination: 19.9717°
perigee height: 848 km
apogee height: 865 km
right ascension of ascending node: 258.4535°
argument of perigee: 239.3759°
revolutions per day: 14.10707972
mean anomaly at epoch: 277.2868°
orbit number at epoch: 51747

The dashed part of the orbit path shows where the satellite is in the earth's shadow,  

DLR